EHI
0 0 0 0 0 0 0 0 0 0 0 0 0 0 0 0 0 0 0 0 0 0 0 0 0 0 0 0 0 0 0 0 0 0 0 0 0 0
0 0 0 0 0 0 0 0 0 0 0 0 0 0 0 0 0 0 0 0 0 0 0 0 0 0 0 0 0 0 0 0 0 0 0 0 0 0
0 0 0 0 0 0 0 0 0 0 0 0 0 0 0 0 0 0 0 0 0 0 0 0 0 0 0 0 0 0 0 0 0 0 0 0 0 0
0 0 0 0 0 0 0 0 0 0 0 0 0 0 0 0 0 0 0 0 0 0 0 0 0 0 0 0 0 0 0 0 0 0 0 0 0 0
0 0 0 0 0 0 0 0 0 0 0 0 0 0 0 0 0 0 0 0 0 0 0 0 0 0 0 0 0 0 0 0 0 0 0 0 0 0
0 0 0 0 0 0 0 0 0 0 0 0 0 0 0 0 0 0 0 0 0 0 0 0 0 0 0 0 0 0 0 0 0 0 0 0 0 0
0 0 0 0 0 0 0 0 0 0 0 0 0 0 0 0 0 0 0 0 0 0 0 0 0 0 0 0 0 0 0 0 0 0 0 0 0 0
0 0 0 0 0 0 0 0 0 0 0 0 0 0 0 0 0 0 0 0 0 0 0 0 0 0 0 0 0 0 0 0 0 0 0 0 0 0
0 0 0 0 0 0 0 0 0 0 0 0 0 0 0 0 0 0 0 0 0 0 0 0 0 0 0 0 0 0 0 0 0 0 0 0 0 0
0 0 0 0 0 0 0 0 0 0 0 0 0 0 0 0 0 0 0 0 0 0 0 0 0 0 0 0 0 0 0 0 0 0 0 0 0 0
0 0 0 0 0 0 0 0 0 0 0 0 0 0 0 0 0 0 0 0 0 0 0 0 0 0 0 0 0 0 0 0 0 0 0 0 0 0
0 0 0 0 0 0 0 0 0 0 0 0 0 0 0 0 0 0 0 0 0 0 0 0 0 0 0 0 0 0 0 0 0 0 0 0 0 0
0 0 0 0 0 0 0 0 0 0 0 0 0 0 0 0 0 0 0 0 0 0 0 0 0 0 0 0 0 0 0 0 0 0 0 0 0 0
0 0 0 0 0 0 0 0 0 0 0 0 0 0 0 0 0 0 0 0 0 0 0 0 0 0 0 0 0 0 0 0 0 0 0 0 0 0
0 0 0 0 0 0 0 0 0 0 0 0 0 0 0 0 0 0 0 0 0 0 0 0 0 0 0 0 0 0 0 0 0 0 0 0 0 0
0 0 0 0 0 0 0 0 0 0 0 0 0 0 0 0 0 0 0 0 0 0 0 0 0 0 0 0 0 0 0 0 0 0 0 0 0 0
0 0 0 0 0 0 0 0 0 0 0 0 0 0 0 0 0 0 0 0 0 0 0 0 0 0 0 0 0 0 0 0 0 0 0 0 0 0
0 0 0 0 0 0 0 0 0 0 0 0 0 0 0 0 0 0 0 0 0 0 0 0 0 0 0 0 0 0 0 0 0 0 0 0 0 0
0 0 0 0 0 0 0 0 0 0 0 0 0 0 0 0 0 0 0 0 0 0 0 0 0 0 0 0 0 0 0 0 0 0 0 0 0 0
0 0 0 0 0 0 0 0 0 0 0 0 0 0 0 0 0 0 0 0 0 0 0 0 0 0 0 0 0 0 0 0 0 0 0 0 0 0
0 0 0 0 0 0 0 0 0 0 0 0 0 0 0 0 0 0 0 0 0 0 0 0 0 0 0 0 0 0 0 0 0 0 0 0 0 0
0 0 0 0 0 0 0 0 0 0 0 0 0 0 0 0 0 0 0 0 0 0 0 0 0 0 0 0 0 0 0 0 0 0 0 0 0 0
0 0 0 0 0 0 0 0 0 0 0 0 0 0 0 0 0 0 0 0 0 0 0 0 0 0 0 0 0 0 0 0 0 0 0 0 0 0
Wind_Speed
2 2 2 2 1 1 0 1 1 1 2 3 2 3 2 3 4 4 6 10 10 10 10 10 10 11 11 11 11 11 11 11 11 12 12 12 11 11
2 2 2 2 2 1 0 0 1 1 2 3 2 2 3 2 4 4 6 7 9 9 9 9 10 10 10 10 10 10 10 10 10 10 10 10 10 10
3 3 3 3 2 2 1 0 1 1 2 2 2 2 2 2 3 3 3 3 6 9 9 9 9 9 9 8 8 8 8 8 9 9 9 9 9 9
3 3 3 3 2 1 1 1 1 1 1 2 2 2 2 2 2 2 3 3 4 8 7 7 7 7 7 7 7 7 7 7 8 8 8 8 8 8
2 2 3 3 2 2 1 1 1 1 1 2 2 2 1 1 1 1 2 2 2 4 4 4 5 5 6 6 6 6 7 7 7 7 7 8 8 8
3 2 2 2 2 2 1 2 2 2 2 2 2 2 1 1 1 0 1 1 2 2 2 2 2 2 3 4 5 5 6 6 6 6 6 6 7 7
3 3 3 3 5 3 1 1 2 2 2 1 1 1 1 1 1 1 1 1 1 1 2 2 1 1 1 2 3 5 5 5 5 5 6 6 6 6
3 3 4 4 4 4 3 4 3 0 1 1 1 1 0 0 0 1 2 2 1 1 3 2 2 2 2 2 5 5 5 5 5 5 5 5 5 6
2 3 2 2 3 4 5 5 2 2 3 2 1 1 1 1 1 2 1 3 2 2 3 3 2 2 2 2 4 4 4 5 5 5 5 5 6 6
2 2 3 3 2 2 3 3 2 1 0 2 2 1 1 1 1 2 2 2 2 1 2 3 3 3 2 1 3 2 3 4 5 5 5 6 6 6
3 2 2 2 3 2 3 2 2 2 2 2 3 3 4 4 2 1 2 3 3 1 0 3 3 3 3 2 2 2 1 2 3 5 5 6 7 8
3 3 2 2 4 4 4 3 2 1 2 3 2 2 2 2 2 3 3 3 3 2 1 2 3 4 3 1 2 1 1 2 3 3 3 4 6 6
4 3 3 6 5 4 4 2 1 1 1 1 1 1 1 0 1 1 2 3 3 3 2 2 3 4 4 4 3 3 3 4 3 3 2 2 4 5
4 3 3 7 6 5 3 2 1 2 2 2 1 1 1 1 1 1 1 2 3 4 4 4 4 4 5 6 5 4 4 4 4 5 5 3 4 5
2 2 4 6 5 4 4 4 4 3 2 2 1 1 1 1 1 1 1 1 2 2 3 4 4 4 5 6 6 5 5 5 4 5 5 5 5 5
4 4 5 4 3 1 3 4 3 2 2 2 1 1 1 1 1 1 1 2 2 2 1 3 4 4 5 6 6 6 6 5 5 5 6 6 5 5
5 4 4 4 3 3 3 2 2 2 2 2 2 2 1 1 1 1 2 2 3 3 2 2 3 3 5 6 6 6 6 6 5 6 6 6 6 5
6 4 4 4 4 3 3 2 2 2 2 2 2 2 2 2 2 2 2 3 3 3 3 3 3 4 4 3 3 6 6 6 6 6 7 7 7 6
4 4 3 3 3 3 3 3 2 2 2 2 2 2 2 2 2 2 3 3 3 4 3 3 3 4 6 6 2 3 6 6 6 6 6 7 8 7
3 3 3 3 3 3 3 3 2 2 2 2 3 3 3 3 3 3 3 4 4 4 4 3 3 4 6 7 7 5 4 6 6 7 7 7 7 8
4 3 3 3 3 3 3 3 3 3 3 3 3 3 3 3 3 3 4 4 5 5 5 4 3 4 6 6 6 6 4 3 5 7 8 8 8 8
3 3 3 3 3 3 3 3 3 3 3 3 3 3 3 3 4 4 4 4 4 5 6 5 4 4 4 6 7 8 7 6 5 7 8 8 7 7
3 3 3 3 3 3 3 3 4 3 3 3 3 3 3 3 4 4 5 5 4 5 5 5 4 4 5 6 7 7 9 8 6 6 6 6 10 13
Wind_Direction
107 114 102 90 96 69 82 284 310 111 99 86 76 65 50 47 27 37 49 54 46 45 46 48 48 46 45 45 47 47 46 46 45 44 43 41 41 42
88 99 96 105 92 99 93 342 329 341 81 85 81 81 55 55 49 36 50 63 54 50 48 48 47 44 43 43 43 42 42 42 42 41 40 37 35 33
128 122 115 107 116 113 110 82 60 63 107 102 94 93 92 57 57 41 41 40 62 61 50 47 43 41 40 39 39 38 37 36 35 34 33 31 30 27
127 129 127 123 122 115 103 99 81 72 123 119 124 117 91 66 47 36 40 42 46 65 55 47 44 43 40 35 33 34 32 30 28 25 23 21 18 17
125 125 129 139 146 132 152 119 104 105 111 146 122 100 115 92 62 50 51 34 34 76 72 62 53 47 41 35 33 31 29 27 24 20 17 15 13 12
128 119 119 126 127 130 138 128 129 134 138 145 141 145 141 129 262 335 41 37 14 20 32 40 71 75 50 36 32 30 27 24 20 16 13 10 8 7
134 124 97 70 47 41 40 104 139 152 154 158 159 166 172 199 264 304 335 343 14 358 340 353 354 345 38 81 49 32 21 16 12 9 7 4 1 359
147 141 132 134 120 109 76 50 24 352 171 182 201 218 235 242 316 285 289 297 313 45 326 337 335 336 349 12 46 34 12 6 3 360 356 352 349 347
165 157 138 133 167 149 143 150 116 24 333 307 282 282 266 273 255 266 296 314 328 354 317 312 321 322 338 47 57 24 9 2 358 352 345 339 336 333
188 186 172 168 164 169 155 150 139 123 266 262 289 309 335 334 283 297 310 296 288 298 300 303 321 319 324 346 90 33 358 354 353 347 340 337 327 314
192 197 201 180 123 181 183 174 168 146 105 72 23 27 36 26 337 258 264 270 283 288 268 294 317 315 299 291 123 150 282 333 338 335 334 336 327 306
185 183 169 195 152 187 203 198 205 201 177 160 167 182 198 170 230 261 281 286 295 301 34 294 306 314 296 285 318 297 262 237 256 275 302 320 326 312
194 195 174 165 180 197 234 229 233 273 226 232 227 202 203 213 198 251 282 284 289 293 328 295 298 300 294 297 298 307 315 317 306 286 247 273 300 305
208 203 162 157 174 191 209 182 169 237 241 240 248 259 272 289 309 316 301 286 292 300 308 298 292 300 300 297 299 307 306 310 312 314 314 295 264 251
218 111 129 154 171 187 188 191 199 220 227 234 248 272 296 305 308 313 292 290 292 294 300 298 294 292 290 293 298 302 306 305 308 309 310 309 307 306
200 149 145 154 183 171 163 184 208 216 228 235 248 258 266 273 275 288 281 276 276 273 287 301 297 293 287 290 290 294 302 305 311 311 310 305 304 304
172 171 176 176 183 190 195 192 197 196 203 221 231 237 240 248 266 285 285 278 282 295 303 307 294 285 283 288 287 290 298 301 307 311 306 301 300 303
161 178 189 197 201 200 200 200 204 215 219 220 228 235 245 255 265 269 273 275 284 293 300 306 303 287 271 258 256 289 296 301 306 305 301 300 301 307
172 192 197 202 209 208 208 215 217 219 224 227 233 238 245 252 259 265 268 275 280 287 294 299 299 298 298 299 274 237 295 302 303 300 302 302 302 308
199 201 201 200 204 207 209 215 217 212 215 227 234 241 246 251 256 263 268 278 282 285 287 287 289 293 294 299 300 295 268 291 301 302 304 302 298 294
191 202 205 205 207 209 211 214 214 214 218 225 233 241 248 253 257 263 268 273 275 279 284 288 300 285 284 286 284 288 293 263 284 294 304 303 303 301
192 198 202 208 212 214 215 215 217 218 224 231 238 243 250 256 262 266 270 271 272 279 285 290 294 283 279 282 289 296 301 303 274 252 259 273 295 303
197 198 198 202 208 208 211 215 220 223 227 238 245 250 253 257 263 266 269 272 276 281 285 286 285 280 281 284 289 293 299 304 303 300 286 255 256 269